DLH7FL EDDM-EDDF

Flight info

Callsign DLH7FL
Flight time 0h 34m
Altitude 24000
Route GIVMI1N GIVMI Y101 ERNAS T161 DEBHI DEBHI1B
Aircraft A319/M-SDE2E3FGIJ1LORWXYZ/HB1

Departure

Time 2026-04-16 06:35
Airport Munich Airport (EDDM)

Arrival

Time 2026-04-16 07:10
Airport Frankfurt Main Airport (EDDF)
Time Latitude Longitude Altitude Speed Heading
2026-04-16 06:09 48.35730 11.79690 1486 ft 0 kts 83°
2026-04-16 06:27 48.35730 11.79688 1485 ft 2 kts 83°
2026-04-16 06:28 48.35727 11.79650 1485 ft 4 kts 83°
2026-04-16 06:28 48.35724 11.79610 1485 ft 4 kts 83°
2026-04-16 06:28 48.35718 11.79572 1485 ft 4 kts 57°
2026-04-16 06:28 48.35700 11.79549 1485 ft 4 kts
2026-04-16 06:29 48.35680 11.79551 1485 ft 4 kts 353°
2026-04-16 06:29 48.35675 11.79552 1485 ft 0 kts 353°
2026-04-16 06:31 48.35677 11.79551 1485 ft 1 kts 353°
2026-04-16 06:31 48.35726 11.79543 1485 ft 13 kts 353°
2026-04-16 06:31 48.35825 11.79525 1485 ft 15 kts 353°
2026-04-16 06:31 48.35931 11.79506 1485 ft 16 kts 353°
2026-04-16 06:32 48.36047 11.79485 1481 ft 17 kts 353°
2026-04-16 06:32 48.36170 11.79464 1474 ft 18 kts 356°
2026-04-16 06:32 48.36224 11.79607 1481 ft 18 kts 85°
2026-04-16 06:32 48.36239 11.79806 1485 ft 21 kts 83°
2026-04-16 06:33 48.36258 11.80039 1485 ft 23 kts 83°
2026-04-16 06:33 48.36277 11.80284 1476 ft 24 kts 85°
2026-04-16 06:33 48.36296 11.80539 1479 ft 27 kts 82°
2026-04-16 06:33 48.36319 11.80838 1480 ft 30 kts 84°
2026-04-16 06:34 48.36339 11.81117 1473 ft 21 kts 84°
2026-04-16 06:34 48.36419 11.81178 1485 ft 18 kts 304°
2026-04-16 06:34 48.36469 11.81002 1485 ft 19 kts 292°
2026-04-16 06:34 48.36524 11.80817 1471 ft 20 kts 295°
2026-04-16 06:35 48.36563 11.80614 1482 ft 21 kts 274°
2026-04-16 06:35 48.36544 11.80186 1486 ft 79 kts 263°
2026-04-16 06:35 48.36447 11.78987 1527 ft 144 kts 262°
2026-04-16 06:35 48.36340 11.77491 2254 ft 143 kts 264°
2026-04-16 06:36 48.36245 11.75995 3000 ft 150 kts 265°
2026-04-16 06:36 48.36126 11.74336 3509 ft 169 kts 264°
2026-04-16 06:36 48.35984 11.72481 4028 ft 188 kts 264°
2026-04-16 06:36 48.35813 11.70399 4476 ft 211 kts 263°
2026-04-16 06:37 48.35657 11.68119 5150 ft 226 kts 272°
2026-04-16 06:37 48.36135 11.65784 5814 ft 249 kts 298°
2026-04-16 06:37 48.37074 11.63515 6709 ft 260 kts 304°
2026-04-16 06:37 48.38123 11.61264 7730 ft 265 kts 305°
2026-04-16 06:38 48.39190 11.58969 8776 ft 270 kts 304°
2026-04-16 06:38 48.40249 11.56601 9817 ft 275 kts 303°
2026-04-16 06:38 48.41300 11.54162 10794 ft 280 kts 302°
2026-04-16 06:38 48.42345 11.51665 11747 ft 284 kts 302°
2026-04-16 06:39 48.43391 11.49118 12697 ft 288 kts 301°
2026-04-16 06:39 48.44477 11.46558 13638 ft 293 kts 307°
2026-04-16 06:39 48.45916 11.44368 14500 ft 298 kts 322°
2026-04-16 06:39 48.47749 11.42791 15038 ft 316 kts 337°
2026-04-16 06:40 48.49962 11.41966 15326 ft 339 kts 348°
2026-04-16 06:40 48.52324 11.41351 15931 ft 348 kts 348°
2026-04-16 06:40 48.54723 11.40715 16671 ft 353 kts 348°
2026-04-16 06:40 48.57157 11.40059 17445 ft 357 kts 347°
2026-04-16 06:41 48.59618 11.39385 18229 ft 361 kts 347°
2026-04-16 06:41 48.61265 11.38929 18706 ft 364 kts 347°
2026-04-16 06:41 48.63772 11.38232 19371 ft 368 kts 347°
2026-04-16 06:41 48.66303 11.37528 20045 ft 372 kts 347°
2026-04-16 06:42 48.68834 11.36687 20709 ft 373 kts 340°
2026-04-16 06:42 48.71237 11.35199 21356 ft 374 kts 329°
2026-04-16 06:42 48.73446 11.33114 22047 ft 376 kts 324°
2026-04-16 06:42 48.75627 11.30901 22760 ft 379 kts 323°
2026-04-16 06:43 48.77823 11.28672 23442 ft 381 kts 323°
2026-04-16 06:43 48.80038 11.26426 24010 ft 385 kts 323°
2026-04-16 06:43 48.82262 11.24169 24190 ft 386 kts 323°
2026-04-16 06:43 48.84458 11.21862 24242 ft 381 kts 319°
2026-04-16 06:44 48.86434 11.19208 24246 ft 378 kts 315°
2026-04-16 06:44 48.88371 11.16510 24247 ft 378 kts 315°
2026-04-16 06:44 48.90309 11.13813 24248 ft 378 kts 315°
2026-04-16 06:44 48.92245 11.11116 24256 ft 377 kts 315°
2026-04-16 06:45 48.94180 11.08416 24256 ft 377 kts 315°
2026-04-16 06:45 48.96114 11.05715 24257 ft 377 kts 315°
2026-04-16 06:45 48.98049 11.03014 24255 ft 377 kts 315°
2026-04-16 06:45 48.99981 11.00312 24269 ft 377 kts 315°
2026-04-16 06:46 49.01910 10.97609 24270 ft 377 kts 315°
2026-04-16 06:46 49.03836 10.94903 24285 ft 376 kts 315°
2026-04-16 06:46 49.05759 10.92196 24284 ft 376 kts 315°
2026-04-16 06:46 49.07684 10.89491 24283 ft 376 kts 315°
2026-04-16 06:47 49.09607 10.86783 24282 ft 376 kts 315°
2026-04-16 06:47 49.11527 10.84070 24274 ft 376 kts 315°
2026-04-16 06:47 49.13446 10.81355 24291 ft 376 kts 315°
2026-04-16 06:47 49.15377 10.78661 24292 ft 377 kts 315°
2026-04-16 06:48 49.17311 10.75962 24293 ft 376 kts 315°
2026-04-16 06:48 49.19212 10.73213 24294 ft 376 kts 314°
2026-04-16 06:48 49.21075 10.70405 24290 ft 376 kts 313°
2026-04-16 06:48 49.22903 10.67557 24263 ft 375 kts 312°
2026-04-16 06:49 49.24721 10.64687 24253 ft 376 kts 312°
2026-04-16 06:49 49.26547 10.61814 24264 ft 376 kts 312°
2026-04-16 06:49 49.28359 10.58928 24269 ft 376 kts 311°
2026-04-16 06:49 49.30167 10.56040 24270 ft 375 kts 311°
2026-04-16 06:50 49.31900 10.53065 24270 ft 373 kts 305°
2026-04-16 06:50 49.33431 10.49852 24271 ft 373 kts 304°
2026-04-16 06:50 49.34954 10.46626 24272 ft 373 kts 304°
2026-04-16 06:50 49.36470 10.43402 24255 ft 373 kts 304°
2026-04-16 06:51 49.37981 10.40170 24253 ft 373 kts 304°
2026-04-16 06:51 49.39488 10.36933 24250 ft 373 kts 304°
2026-04-16 06:51 49.40992 10.33691 24252 ft 373 kts 304°
2026-04-16 06:51 49.42495 10.30446 24258 ft 373 kts 304°
2026-04-16 06:52 49.43996 10.27212 24254 ft 373 kts 304°
2026-04-16 06:52 49.45503 10.23972 24254 ft 373 kts 304°
2026-04-16 06:52 49.47011 10.20732 24252 ft 373 kts 304°
2026-04-16 06:52 49.48519 10.17491 24251 ft 373 kts 304°
2026-04-16 06:53 49.50029 10.14242 24239 ft 374 kts 304°
2026-04-16 06:53 49.51539 10.10979 24231 ft 375 kts 304°
2026-04-16 06:53 49.53050 10.07703 24237 ft 376 kts 304°
2026-04-16 06:53 49.54564 10.04422 24242 ft 376 kts 304°
2026-04-16 06:54 49.56084 10.01123 23584 ft 380 kts 304°
2026-04-16 06:54 49.57620 9.97783 22693 ft 383 kts 304°
2026-04-16 06:54 49.59154 9.94449 21888 ft 379 kts 304°
2026-04-16 06:54 49.60670 9.91147 21061 ft 376 kts 304°
2026-04-16 06:55 49.62173 9.87868 20297 ft 373 kts 304°
2026-04-16 06:55 49.63662 9.84619 19565 ft 369 kts 304°
2026-04-16 06:55 49.65133 9.81404 18833 ft 366 kts 304°
2026-04-16 06:55 49.66589 9.78210 18170 ft 360 kts 304°
2026-04-16 06:56 49.68009 9.75099 17756 ft 347 kts 304°
2026-04-16 06:56 49.69358 9.72141 17566 ft 328 kts 304°
2026-04-16 06:56 49.70669 9.69266 16829 ft 328 kts 304°
2026-04-16 06:56 49.71973 9.66402 16281 ft 323 kts 304°
2026-04-16 06:57 49.73292 9.63617 15710 ft 320 kts 310°
2026-04-16 06:57 49.75010 9.61439 15141 ft 320 kts 323°
2026-04-16 06:57 49.76848 9.59517 14550 ft 318 kts 324°
2026-04-16 06:57 49.78684 9.57622 13980 ft 316 kts 324°
2026-04-16 06:58 49.80511 9.55742 13360 ft 314 kts 324°
2026-04-16 06:58 49.82325 9.53861 12878 ft 313 kts 324°
2026-04-16 06:58 49.84126 9.51985 12425 ft 311 kts 324°
2026-04-16 06:58 49.85906 9.50116 11982 ft 308 kts 324°
2026-04-16 06:59 49.87671 9.48246 11538 ft 306 kts 324°
2026-04-16 06:59 49.89417 9.46381 11090 ft 304 kts 324°
2026-04-16 06:59 49.91139 9.44526 10813 ft 296 kts 324°
2026-04-16 06:59 49.92794 9.42734 10699 ft 284 kts 324°
2026-04-16 07:00 49.94394 9.41001 10440 ft 279 kts 324°
2026-04-16 07:00 49.95972 9.39282 10093 ft 276 kts 324°
2026-04-16 07:00 49.97441 9.37389 9691 ft 274 kts 316°
2026-04-16 07:01 49.99470 9.32503 8878 ft 271 kts 294°
2026-04-16 07:01 50.00234 9.29833 8479 ft 269 kts 294°
2026-04-16 07:01 50.00987 9.27178 8080 ft 267 kts 294°
2026-04-16 07:01 50.01735 9.24535 7681 ft 266 kts 294°
2026-04-16 07:02 50.02476 9.21910 7283 ft 264 kts 294°
2026-04-16 07:02 50.03213 9.19300 6876 ft 263 kts 294°
2026-04-16 07:02 50.03948 9.16710 6465 ft 261 kts 294°
2026-04-16 07:02 50.04679 9.14141 6018 ft 259 kts 293°
2026-04-16 07:03 50.05422 9.11585 5557 ft 259 kts 294°
2026-04-16 07:03 50.06164 9.09040 5123 ft 257 kts 294°
2026-04-16 07:03 50.06897 9.06511 5003 ft 256 kts 294°
2026-04-16 07:03 50.07604 9.04067 5009 ft 241 kts 294°
2026-04-16 07:04 50.08287 9.01705 5014 ft 239 kts 294°
2026-04-16 07:04 50.08968 8.99350 5018 ft 238 kts 294°
2026-04-16 07:04 50.09647 8.96994 5020 ft 238 kts 294°
2026-04-16 07:04 50.10327 8.94645 5022 ft 238 kts 294°
2026-04-16 07:05 50.10986 8.92271 4981 ft 238 kts 288°
2026-04-16 07:05 50.11200 8.89722 4830 ft 241 kts 267°
2026-04-16 07:05 50.10755 8.87175 4274 ft 246 kts 250°
2026-04-16 07:05 50.10164 8.84689 3901 ft 243 kts 251°
2026-04-16 07:06 50.09588 8.82241 3571 ft 238 kts 251°
2026-04-16 07:06 50.09026 8.79849 3253 ft 230 kts 251°
2026-04-16 07:06 50.08492 8.77591 2947 ft 215 kts 251°
2026-04-16 07:06 50.07989 8.75464 2670 ft 204 kts 251°
2026-04-16 07:07 50.07511 8.73443 2390 ft 194 kts 251°
2026-04-16 07:07 50.07063 8.71548 2161 ft 180 kts 251°
2026-04-16 07:07 50.06644 8.69778 1910 ft 168 kts 250°
2026-04-16 07:07 50.06251 8.68117 1700 ft 160 kts 250°
2026-04-16 07:08 50.05877 8.66543 1474 ft 150 kts 250°
2026-04-16 07:08 50.05531 8.65082 1290 ft 136 kts 249°
2026-04-16 07:08 50.05217 8.63763 1103 ft 126 kts 249°
2026-04-16 07:08 50.04919 8.62509 940 ft 122 kts 249°
2026-04-16 07:09 50.04627 8.61281 784 ft 121 kts 248°
2026-04-16 07:09 50.04338 8.60058 575 ft 119 kts 250°
2026-04-16 07:09 50.04051 8.58847 417 ft 119 kts 248°
2026-04-16 07:09 50.03770 8.57681 348 ft 103 kts 250°
2026-04-16 07:10 50.03588 8.56915 352 ft 39 kts 250°
2026-04-16 07:10 50.03501 8.56536 350 ft 36 kts 250°
2026-04-16 07:10 50.03431 8.56199 350 ft 29 kts 263°
2026-04-16 07:10 50.03454 8.55893 346 ft 28 kts 279°
2026-04-16 07:11 50.03492 8.55705 354 ft 10 kts 331°
2026-04-16 07:11 50.03557 8.55738 349 ft 11 kts 59°
2026-04-16 07:11 50.03587 8.55867 349 ft 17 kts 70°
2026-04-16 07:11 50.03650 8.56126 356 ft 30 kts 69°
2026-04-16 07:12 50.03724 8.56433 354 ft 28 kts 70°
2026-04-16 07:12 50.03789 8.56651 346 ft 17 kts 37°
2026-04-16 07:12 50.03908 8.56698 346 ft 18 kts 11°
2026-04-16 07:12 50.04041 8.56736 358 ft 20 kts
2026-04-16 07:13 50.04183 8.56775 346 ft 20 kts
2026-04-16 07:13 50.04211 8.56624 350 ft 20 kts 249°
2026-04-16 07:13 50.04162 8.56403 346 ft 19 kts 253°
2026-04-16 07:13 50.04234 8.56259 346 ft 19 kts 332°
2026-04-16 07:14 50.04298 8.56161 354 ft 11 kts 263°
2026-04-16 07:14 50.04336 8.56063 346 ft 14 kts 340°
2026-04-16 07:14 50.04439 8.56053 350 ft 15 kts 36°
2026-04-16 07:14 50.04423 8.56152 352 ft 10 kts 154°
2026-04-16 07:15 50.04399 8.56168 346 ft 0 kts 155°